TimeEDT,TemperatureF,Dew PointF,Humidity,Sea Level PressureIn,VisibilityMPH,Wind Direction,Wind SpeedMPH,Gust SpeedMPH,PrecipitationIn,Events,Conditions,WindDirDegrees,DateUTC
12:15 AM,55.4,51.8,88,29.70,10.0,SW,12.7,-,N/A,,Scattered Clouds,220,2013-05-16 04:15:00
12:35 AM,55.4,51.8,88,29.69,10.0,SW,11.5,-,N/A,,Partly Cloudy,220,2013-05-16 04:35:00
12:55 AM,53.6,51.8,94,29.70,10.0,SW,9.2,-,N/A,,Clear,220,2013-05-16 04:55:00
1:15 AM,53.6,51.8,94,29.68,9.0,SSW,9.2,-,N/A,,Clear,210,2013-05-16 05:15:00
1:35 AM,53.6,51.8,94,29.68,8.0,SW,9.2,-,N/A,,Clear,220,2013-05-16 05:35:00
1:55 AM,53.6,51.8,94,29.68,7.0,SSW,10.4,-,N/A,,Clear,210,2013-05-16 05:55:00
2:15 AM,53.6,51.8,94,29.68,7.0,SW,10.4,-,N/A,,Clear,230,2013-05-16 06:15:00
2:35 AM,51.8,51.8,100,29.68,8.0,SW,8.1,-,N/A,,Clear,220,2013-05-16 06:35:00
2:55 AM,51.8,51.8,100,29.67,10.0,SW,8.1,-,N/A,,Clear,220,2013-05-16 06:55:00
3:15 AM,51.8,51.8,100,29.67,10.0,SW,9.2,-,N/A,,Clear,220,2013-05-16 07:15:00
3:35 AM,51.8,50.0,94,29.67,10.0,WSW,10.4,-,N/A,,Clear,240,2013-05-16 07:35:00
3:55 AM,53.6,51.8,94,29.66,10.0,WSW,10.4,-,N/A,,Clear,240,2013-05-16 07:55:00
4:15 AM,53.6,51.8,94,29.66,10.0,SW,9.2,-,N/A,,Clear,230,2013-05-16 08:15:00
4:35 AM,53.6,51.8,94,29.66,10.0,SW,9.2,-,N/A,,Clear,220,2013-05-16 08:35:00
4:55 AM,51.8,50.0,94,29.66,10.0,SW,6.9,-,N/A,,Clear,220,2013-05-16 08:55:00
5:15 AM,51.8,50.0,94,29.67,10.0,SW,6.9,-,N/A,,Clear,220,2013-05-16 09:15:00
5:35 AM,51.8,50.0,94,29.68,9.0,SW,5.8,-,N/A,,Clear,220,2013-05-16 09:35:00
5:55 AM,51.8,50.0,94,29.68,10.0,SW,6.9,-,N/A,,Clear,230,2013-05-16 09:55:00
6:15 AM,51.8,50.0,94,29.69,10.0,SW,8.1,-,N/A,,Clear,230,2013-05-16 10:15:00
6:35 AM,53.6,51.8,94,29.69,10.0,SW,6.9,-,N/A,,Clear,230,2013-05-16 10:35:00
6:55 AM,55.4,51.8,88,29.70,10.0,SW,8.1,-,N/A,,Clear,230,2013-05-16 10:55:00
7:15 AM,57.2,51.8,82,29.70,10.0,SW,9.2,-,N/A,,Clear,220,2013-05-16 11:15:00
7:35 AM,57.2,50.0,77,29.70,10.0,SW,9.2,-,N/A,,Clear,230,2013-05-16 11:35:00
7:55 AM,57.2,50.0,77,29.70,10.0,SW,10.4,-,N/A,,Clear,230,2013-05-16 11:55:00
8:15 AM,60.8,48.2,63,29.71,10.0,SW,9.2,-,N/A,,Clear,230,2013-05-16 12:15:00
8:35 AM,60.8,50.0,68,29.72,10.0,SW,11.5,-,N/A,,Clear,220,2013-05-16 12:35:00
8:55 AM,62.6,48.2,59,29.72,10.0,WSW,13.8,-,N/A,,Clear,240,2013-05-16 12:55:00
9:15 AM,62.6,48.2,59,29.71,10.0,WSW,12.7,-,N/A,,Clear,250,2013-05-16 13:15:00
9:35 AM,64.4,48.2,56,29.72,10.0,WSW,13.8,19.6,N/A,,Clear,240,2013-05-16 13:35:00
9:55 AM,64.4,48.2,56,29.73,10.0,WSW,15.0,-,N/A,,Clear,240,2013-05-16 13:55:00
10:15 AM,66.2,46.4,49,29.73,10.0,WSW,15.0,-,N/A,,Clear,250,2013-05-16 14:15:00
10:35 AM,68.0,48.2,49,29.73,10.0,SW,12.7,-,N/A,,Clear,230,2013-05-16 14:35:00
10:55 AM,66.2,48.2,52,29.73,10.0,SW,15.0,-,N/A,,Clear,220,2013-05-16 14:55:00
11:15 AM,68.0,51.8,56,29.73,10.0,SW,17.3,23.0,N/A,,Clear,220,2013-05-16 15:15:00
11:35 AM,69.8,50.0,49,29.73,10.0,SW,16.1,-,N/A,,Clear,220,2013-05-16 15:35:00
11:55 AM,66.2,48.2,52,29.73,10.0,SW,13.8,-,N/A,,Clear,220,2013-05-16 15:55:00
12:15 PM,71.6,50.0,46,29.71,10.0,SW,13.8,-,N/A,,Clear,230,2013-05-16 16:15:00
12:35 PM,71.6,48.2,43,29.71,10.0,SW,12.7,-,N/A,,Clear,230,2013-05-16 16:35:00
12:55 PM,73.4,48.2,41,29.70,10.0,WSW,12.7,-,N/A,,Clear,240,2013-05-16 16:55:00
1:15 PM,75.2,44.6,34,29.69,10.0,SW,13.8,19.6,N/A,,Clear,220,2013-05-16 17:15:00
1:35 PM,73.4,44.6,36,29.69,10.0,SW,11.5,-,N/A,,Clear,230,2013-05-16 17:35:00
1:55 PM,73.4,44.6,36,29.69,10.0,WSW,9.2,-,N/A,,Clear,240,2013-05-16 17:55:00
2:15 PM,75.2,42.8,31,29.69,10.0,SW,10.4,-,N/A,,Clear,230,2013-05-16 18:15:00
2:35 PM,75.2,42.8,31,29.68,10.0,SW,10.4,-,N/A,,Clear,230,2013-05-16 18:35:00
3:15 PM,73.4,46.4,38,29.68,10.0,SSW,15.0,18.4,N/A,,Clear,210,2013-05-16 19:15:00
3:35 PM,71.6,46.4,41,29.67,10.0,SW,18.4,27.6,N/A,,Clear,220,2013-05-16 19:35:00
3:55 PM,69.8,46.4,43,29.67,10.0,SSW,18.4,24.2,N/A,,Clear,210,2013-05-16 19:55:00
4:15 PM,68.0,48.2,49,29.67,10.0,SW,17.3,23.0,N/A,,Clear,220,2013-05-16 20:15:00
4:35 PM,68.0,48.2,49,29.67,10.0,SSW,18.4,25.3,N/A,,Clear,210,2013-05-16 20:35:00
4:55 PM,66.2,48.2,52,29.67,10.0,SW,18.4,23.0,N/A,,Clear,220,2013-05-16 20:55:00
5:15 PM,68.0,46.4,46,29.67,10.0,SW,19.6,27.6,N/A,,Clear,220,2013-05-16 21:15:00
5:35 PM,66.2,46.4,49,29.67,10.0,SSW,18.4,24.2,N/A,,Clear,210,2013-05-16 21:35:00
6:15 PM,64.4,48.2,56,29.68,10.0,SSW,18.4,24.2,N/A,,Clear,210,2013-05-16 22:15:00
6:35 PM,64.4,48.2,56,29.68,8.0,SSW,17.3,23.0,N/A,,Clear,210,2013-05-16 22:35:00
6:55 PM,62.6,48.2,59,29.68,10.0,SSW,16.1,23.0,N/A,,Clear,210,2013-05-16 22:55:00
7:15 PM,60.8,48.2,63,29.69,7.0,SSW,15.0,18.4,N/A,,Partly Cloudy,210,2013-05-16 23:15:00
7:35 PM,60.8,48.2,63,29.70,10.0,SSW,15.0,20.7,N/A,,Partly Cloudy,210,2013-05-16 23:35:00
7:55 PM,59.0,48.2,67,29.71,10.0,SSW,12.7,-,N/A,,Clear,210,2013-05-16 23:55:00
8:15 PM,57.2,48.2,72,29.72,10.0,SW,12.7,18.4,N/A,,Clear,220,2013-05-17 00:15:00
8:35 PM,57.2,48.2,72,29.72,10.0,SW,15.0,-,N/A,,Clear,220,2013-05-17 00:35:00
8:55 PM,57.2,48.2,72,29.73,10.0,SW,12.7,17.3,N/A,,Clear,220,2013-05-17 00:55:00
9:15 PM,57.2,48.2,72,29.74,10.0,SSW,12.7,-,N/A,,Clear,210,2013-05-17 01:15:00
9:35 PM,55.4,48.2,77,29.75,10.0,SW,11.5,-,N/A,,Clear,220,2013-05-17 01:35:00
9:55 PM,55.4,50.0,82,29.76,10.0,SW,11.5,-,N/A,,Clear,220,2013-05-17 01:55:00
10:15 PM,55.4,50.0,82,29.77,10.0,SW,10.4,-,N/A,,Clear,230,2013-05-17 02:15:00
10:35 PM,55.4,50.0,82,29.78,10.0,SW,9.2,-,N/A,,Clear,230,2013-05-17 02:35:00
10:55 PM,55.4,48.2,77,29.78,10.0,WSW,10.4,-,N/A,,Clear,240,2013-05-17 02:55:00
11:15 PM,55.4,48.2,77,29.78,10.0,WSW,10.4,-,N/A,,Clear,240,2013-05-17 03:15:00
11:35 PM,55.4,48.2,77,29.79,10.0,WSW,10.4,-,N/A,,Clear,250,2013-05-17 03:35:00
11:55 PM,55.4,48.2,77,29.78,10.0,WSW,10.4,-,N/A,,Clear,250,2013-05-17 03:55:00